Time,TemperatureF,DewpointF,PressureIn,WindDirection,WindDirectionDegrees,WindSpeedMPH,WindSpeedGustMPH,Humidity,HourlyPrecipIn,Conditions,Clouds,dailyrainin,SolarRadiationWatts/m^2,SoftwareType,DateUTC
2013-05-07 00:01:00,61.6,48.0,30.02,SE,126,0.0,0.0,61,0.00,,---,0.00,0.00,VWS V14.01,2013-05-07 05:01:00,
2013-05-07 00:06:00,61.5,47.9,30.02,SE,126,0.0,0.0,61,0.00,,---,0.00,0.00,VWS V14.01,2013-05-07 05:06:00,
2013-05-07 00:11:00,61.5,47.9,30.02,SE,126,0.0,0.0,61,0.00,,---,0.00,0.00,VWS V14.01,2013-05-07 05:11:00,
2013-05-07 00:16:00,61.2,47.7,30.01,SE,126,0.0,0.0,61,0.00,,---,0.00,0.00,VWS V14.01,2013-05-07 05:16:00,
2013-05-07 00:21:00,61.0,47.5,30.01,SE,126,0.0,0.0,61,0.00,,---,0.00,0.00,VWS V14.01,2013-05-07 05:21:00,
2013-05-07 00:26:00,60.7,48.0,30.02,SE,126,0.0,0.0,63,0.00,,---,0.00,0.00,VWS V14.01,2013-05-07 05:26:00,
2013-05-07 00:31:00,60.3,47.7,30.02,SE,126,0.0,0.0,63,0.00,,---,0.00,0.00,VWS V14.01,2013-05-07 05:31:00,
2013-05-07 00:36:00,60.1,47.9,30.02,SE,126,0.0,0.0,64,0.00,,---,0.00,0.00,VWS V14.01,2013-05-07 05:36:00,
2013-05-07 00:41:00,60.0,47.8,30.02,SE,126,0.0,0.0,64,0.00,,---,0.00,0.00,VWS V14.01,2013-05-07 05:41:00,
2013-05-07 00:46:00,59.9,47.7,30.02,SE,126,0.0,0.0,64,0.00,,---,0.00,0.00,VWS V14.01,2013-05-07 05:46:00,
2013-05-07 00:51:00,59.7,47.9,30.02,SE,126,0.0,0.0,65,0.00,,---,0.00,0.00,VWS V14.01,2013-05-07 05:51:00,
2013-05-07 00:56:00,59.5,47.7,30.02,SE,126,0.0,0.0,65,0.00,,---,0.00,0.00,VWS V14.01,2013-05-07 05:56:00,
2013-05-07 01:01:00,59.4,48.0,30.03,SE,126,0.0,0.0,66,0.00,,---,0.00,0.00,VWS V14.01,2013-05-07 06:01:00,
2013-05-07 01:06:00,59.2,48.3,30.03,SE,126,0.0,0.0,67,0.00,,---,0.00,0.00,VWS V14.01,2013-05-07 06:06:00,
2013-05-07 01:11:00,59.1,48.2,30.03,SE,126,0.0,0.0,67,0.00,,---,0.00,0.00,VWS V14.01,2013-05-07 06:11:00,
2013-05-07 01:16:00,59.1,48.2,30.03,SE,126,0.0,0.0,67,0.00,,---,0.00,0.00,VWS V14.01,2013-05-07 06:16:00,
2013-05-07 01:21:00,59.0,48.1,30.03,SE,126,0.0,0.0,67,0.00,,---,0.00,0.00,VWS V14.01,2013-05-07 06:21:00,
2013-05-07 01:26:00,59.0,48.5,30.03,SE,126,0.0,0.0,68,0.00,,---,0.00,0.00,VWS V14.01,2013-05-07 06:26:00,
2013-05-07 01:31:00,58.9,48.8,30.03,SE,126,0.0,0.0,69,0.00,,---,0.00,0.00,VWS V14.01,2013-05-07 06:31:00,
2013-05-07 01:36:00,58.8,49.0,30.03,SE,126,0.0,0.0,70,0.00,,---,0.00,0.00,VWS V14.01,2013-05-07 06:36:00,
2013-05-07 01:41:00,58.5,48.8,30.03,SE,126,0.0,0.0,70,0.00,,---,0.00,0.00,VWS V14.01,2013-05-07 06:41:00,
2013-05-07 01:46:00,58.3,49.0,30.02,SE,126,0.0,0.0,71,0.00,,---,0.00,0.00,VWS V14.01,2013-05-07 06:46:00,
2013-05-07 01:51:00,58.2,48.8,30.02,SE,126,0.0,0.0,71,0.00,,---,0.00,0.00,VWS V14.01,2013-05-07 06:51:00,
2013-05-07 01:56:00,57.9,48.9,30.02,SE,126,0.0,0.0,72,0.00,,---,0.00,0.00,VWS V14.01,2013-05-07 06:56:00,
2013-05-07 02:01:00,57.8,48.8,30.02,SE,126,0.0,0.0,72,0.00,,---,0.00,0.00,VWS V14.01,2013-05-07 07:01:00,
2013-05-07 02:06:00,57.6,48.7,30.01,SE,126,0.0,0.0,72,0.00,,---,0.00,0.00,VWS V14.01,2013-05-07 07:06:00,
2013-05-07 02:11:00,57.5,48.6,30.01,SE,126,0.0,0.0,72,0.00,,---,0.00,0.00,VWS V14.01,2013-05-07 07:11:00,
2013-05-07 02:16:00,57.5,48.6,30.01,SE,126,0.0,0.0,72,0.00,,---,0.00,0.00,VWS V14.01,2013-05-07 07:16:00,
2013-05-07 02:21:00,57.4,48.1,30.01,SE,126,0.0,0.0,71,0.00,,---,0.00,0.00,VWS V14.01,2013-05-07 07:21:00,
2013-05-07 02:26:00,57.4,48.5,30.00,SE,126,0.0,0.0,72,0.00,,---,0.00,0.00,VWS V14.01,2013-05-07 07:26:00,
2013-05-07 02:31:00,57.2,48.6,29.99,SE,126,0.0,1.0,73,0.00,,---,0.00,0.00,VWS V14.01,2013-05-07 07:31:00,
2013-05-07 02:36:00,57.1,48.5,29.99,SE,126,0.0,1.0,73,0.00,,---,0.00,0.00,VWS V14.01,2013-05-07 07:36:00,
2013-05-07 02:41:00,57.7,48.8,29.99,SE,126,3.0,4.0,72,0.00,,---,0.00,0.00,VWS V14.01,2013-05-07 07:41:00,
2013-05-07 02:46:00,58.9,48.8,29.99,SE,125,5.0,7.0,69,0.00,,---,0.00,0.00,VWS V14.01,2013-05-07 07:46:00,
2013-05-07 02:51:00,59.9,48.9,29.98,ESE,121,3.0,7.0,67,0.00,,---,0.00,0.00,VWS V14.01,2013-05-07 07:51:00,
2013-05-07 02:56:00,60.7,49.3,29.98,ESE,109,2.0,9.0,66,0.00,,---,0.00,0.00,VWS V14.01,2013-05-07 07:56:00,
2013-05-07 03:01:00,61.1,48.8,29.97,East,96,6.0,10.0,64,0.00,,---,0.00,0.00,VWS V14.01,2013-05-07 08:01:00,
2013-05-07 03:06:00,61.1,48.8,29.96,East,96,0.0,9.0,64,0.00,,---,0.00,0.00,VWS V14.01,2013-05-07 08:06:00,
2013-05-07 03:11:00,60.7,49.3,29.96,East,96,0.0,9.0,66,0.00,,---,0.00,0.00,VWS V14.01,2013-05-07 08:11:00,
2013-05-07 03:16:00,60.1,48.7,29.95,East,96,0.0,9.0,66,0.00,,---,0.00,0.00,VWS V14.01,2013-05-07 08:16:00,
2013-05-07 03:21:00,59.5,48.5,29.95,East,98,0.0,9.0,67,0.00,,---,0.00,0.00,VWS V14.01,2013-05-07 08:21:00,
2013-05-07 03:26:00,59.3,48.8,29.95,East,98,0.0,9.0,68,0.00,,---,0.00,0.00,VWS V14.01,2013-05-07 08:26:00,
2013-05-07 03:31:00,59.3,48.8,29.96,East,98,0.0,9.0,68,0.00,,---,0.00,0.00,VWS V14.01,2013-05-07 08:31:00,
2013-05-07 03:36:00,59.3,48.8,29.96,East,101,2.0,7.0,68,0.00,,---,0.00,0.00,VWS V14.01,2013-05-07 08:36:00,
2013-05-07 03:41:00,59.5,48.5,29.96,ESE,104,4.0,7.0,67,0.00,,---,0.00,0.00,VWS V14.01,2013-05-07 08:41:00,
2013-05-07 03:46:00,59.4,48.8,29.96,ESE,109,5.0,8.0,68,0.00,,---,0.00,0.00,VWS V14.01,2013-05-07 08:46:00,
2013-05-07 03:51:00,59.3,48.8,29.97,ESE,115,0.0,8.0,68,0.00,,---,0.00,0.00,VWS V14.01,2013-05-07 08:51:00,
2013-05-07 03:56:00,59.4,48.8,29.97,ESE,115,1.0,9.0,68,0.00,,---,0.00,0.00,VWS V14.01,2013-05-07 08:56:00,
2013-05-07 04:01:00,59.4,48.8,29.97,ESE,117,3.0,9.0,68,0.00,,---,0.00,0.00,VWS V14.01,2013-05-07 09:01:00,
2013-05-07 04:06:00,59.3,48.8,29.96,ESE,117,0.0,7.0,68,0.00,,---,0.00,0.00,VWS V14.01,2013-05-07 09:06:00,
2013-05-07 04:11:00,59.0,48.5,29.97,ESE,117,0.0,7.0,68,0.00,,---,0.00,0.00,VWS V14.01,2013-05-07 09:11:00,
2013-05-07 04:16:00,58.9,48.8,29.97,ESE,117,0.0,7.0,69,0.00,,---,0.00,0.00,VWS V14.01,2013-05-07 09:16:00,
2013-05-07 04:21:00,58.9,48.8,29.97,ESE,117,0.0,7.0,69,0.00,,---,0.00,0.00,VWS V14.01,2013-05-07 09:21:00,
2013-05-07 04:26:00,58.8,48.7,29.98,ESE,117,0.0,7.0,69,0.00,,---,0.00,0.00,VWS V14.01,2013-05-07 09:26:00,
2013-05-07 04:31:00,58.6,48.5,29.99,ESE,117,0.0,7.0,69,0.00,,---,0.00,0.00,VWS V14.01,2013-05-07 09:31:00,
2013-05-07 04:36:00,58.5,48.0,30.00,ESE,117,1.0,4.0,68,0.00,,---,0.00,0.00,VWS V14.01,2013-05-07 09:36:00,
2013-05-07 04:41:00,57.9,47.8,30.02,NNW,332,7.0,11.0,69,0.00,,---,0.00,0.00,VWS V14.01,2013-05-07 09:41:00,
2013-05-07 04:46:00,57.5,47.8,30.02,NW,305,2.0,13.0,70,0.00,,---,0.00,0.00,VWS V14.01,2013-05-07 09:46:00,
2013-05-07 04:51:00,57.4,47.7,30.03,NW,305,0.0,13.0,70,0.00,,---,0.00,0.00,VWS V14.01,2013-05-07 09:51:00,
2013-05-07 04:56:00,57.4,47.7,30.02,NW,305,0.0,13.0,70,0.00,,---,0.00,0.00,VWS V14.01,2013-05-07 09:56:00,
2013-05-07 05:01:00,57.5,47.8,30.02,NW,305,0.0,13.0,70,0.00,,---,0.00,0.00,VWS V14.01,2013-05-07 10:01:00,
2013-05-07 05:06:00,57.5,47.8,30.01,NW,305,0.0,0.0,70,0.00,,---,0.00,0.00,VWS V14.01,2013-05-07 10:06:00,
2013-05-07 05:11:00,57.4,48.1,30.01,NW,305,0.0,0.0,71,0.00,,---,0.00,0.00,VWS V14.01,2013-05-07 10:11:00,
2013-05-07 05:16:00,57.3,48.4,29.99,NW,305,0.0,0.0,72,0.00,,---,0.00,0.00,VWS V14.01,2013-05-07 10:16:00,
2013-05-07 05:21:00,56.9,48.0,29.98,WNW,303,5.0,5.0,72,0.00,,---,0.00,0.00,VWS V14.01,2013-05-07 10:21:00,
2013-05-07 05:26:00,56.8,48.2,29.97,SSE,167,0.0,7.0,73,0.00,,---,0.00,0.00,VWS V14.01,2013-05-07 10:26:00,
2013-05-07 05:31:00,56.9,48.0,29.98,SSE,161,0.0,7.0,72,0.00,,---,0.00,0.00,VWS V14.01,2013-05-07 10:31:00,
2013-05-07 05:36:00,56.9,47.6,29.98,SSE,161,0.0,1.0,71,0.00,,---,0.00,0.00,VWS V14.01,2013-05-07 10:36:00,
2013-05-07 05:41:00,57.1,47.8,29.98,SSE,161,0.0,1.0,71,0.00,,---,0.00,0.00,VWS V14.01,2013-05-07 10:41:00,
2013-05-07 05:46:00,57.0,47.7,29.99,SSE,161,0.0,1.0,71,0.00,,---,0.00,0.00,VWS V14.01,2013-05-07 10:46:00,
2013-05-07 05:51:00,56.7,47.4,29.99,SSE,161,0.0,1.0,71,0.00,,---,0.00,0.00,VWS V14.01,2013-05-07 10:51:00,
2013-05-07 05:56:00,56.4,47.1,29.98,SSE,161,0.0,1.0,71,0.00,,---,0.00,0.00,VWS V14.01,2013-05-07 10:56:00,
2013-05-07 06:01:00,56.2,47.3,29.98,SSE,161,0.0,1.0,72,0.00,,---,0.00,0.00,VWS V14.01,2013-05-07 11:01:00,
2013-05-07 06:06:00,55.9,47.4,29.98,SSE,156,1.0,4.0,73,0.00,,---,0.00,0.00,VWS V14.01,2013-05-07 11:06:00,
2013-05-07 06:11:00,55.8,47.3,29.97,SE,132,0.0,5.0,73,0.00,,---,0.00,0.00,VWS V14.01,2013-05-07 11:11:00,
2013-05-07 06:15:00,55.7,47.5,29.98,SE,131,0.0,5.0,74,0.00,,---,0.00,0.00,VWS V14.01,2013-05-07 11:15:00,
2013-05-07 06:20:00,55.6,47.5,29.98,SE,131,0.0,5.0,74,0.00,,---,0.00,0.00,VWS V14.01,2013-05-07 11:20:00,
2013-05-07 06:25:00,55.5,47.4,29.98,SE,131,0.0,5.0,74,0.00,,---,0.00,0.00,VWS V14.01,2013-05-07 11:25:00,
2013-05-07 06:30:00,55.4,47.3,29.98,SE,131,0.0,5.0,74,0.00,,---,0.00,0.00,VWS V14.01,2013-05-07 11:30:00,
2013-05-07 06:35:00,55.3,47.5,29.98,SE,131,0.0,0.0,75,0.00,,---,0.00,0.00,VWS V14.01,2013-05-07 11:35:00,
2013-05-07 06:40:00,55.2,47.4,29.99,SE,131,0.0,0.0,75,0.00,,---,0.00,0.00,VWS V14.01,2013-05-07 11:40:00,
2013-05-07 06:45:00,55.0,47.2,29.99,SE,131,0.0,0.0,75,0.00,,---,0.00,9.00,VWS V14.01,2013-05-07 11:45:00,
2013-05-07 06:50:00,54.9,47.1,29.99,SE,131,0.0,0.0,75,0.00,,---,0.00,12.00,VWS V14.01,2013-05-07 11:50:00,
2013-05-07 06:55:00,54.7,46.9,30.00,SE,131,0.0,0.0,75,0.00,,---,0.00,19.00,VWS V14.01,2013-05-07 11:55:00,
2013-05-07 07:00:00,54.5,46.8,30.00,SE,131,0.0,0.0,75,0.00,,---,0.00,26.00,VWS V14.01,2013-05-07 12:00:00,
2013-05-07 07:05:00,54.3,46.9,30.01,SE,131,0.0,0.0,76,0.00,,---,0.00,40.00,VWS V14.01,2013-05-07 12:05:00,
2013-05-07 07:10:00,54.3,46.9,30.01,SE,131,2.0,4.0,76,0.00,,---,0.00,54.00,VWS V14.01,2013-05-07 12:10:00,
2013-05-07 07:15:00,54.1,46.7,30.01,SE,131,0.0,4.0,76,0.00,,---,0.00,62.00,VWS V14.01,2013-05-07 12:15:00,
2013-05-07 07:20:00,54.1,47.1,30.02,SE,131,0.0,4.0,77,0.00,,---,0.00,58.00,VWS V14.01,2013-05-07 12:20:00,
2013-05-07 07:25:00,54.2,47.2,30.02,SE,131,0.0,4.0,77,0.00,,---,0.00,70.00,VWS V14.01,2013-05-07 12:25:00,
2013-05-07 07:30:00,54.4,47.7,30.01,SE,131,0.0,4.0,78,0.00,,---,0.00,98.00,VWS V14.01,2013-05-07 12:30:00,
2013-05-07 07:35:00,55.0,48.3,30.01,SE,131,0.0,4.0,78,0.00,,---,0.00,105.00,VWS V14.01,2013-05-07 12:35:00,
2013-05-07 07:40:00,55.4,48.7,30.00,SE,131,0.0,4.0,78,0.00,,---,0.00,95.00,VWS V14.01,2013-05-07 12:40:00,
2013-05-07 07:45:00,55.8,48.7,30.00,SE,131,0.0,4.0,77,0.00,,---,0.00,77.00,VWS V14.01,2013-05-07 12:45:00,
2013-05-07 07:50:00,56.2,49.1,30.00,SE,131,0.0,4.0,77,0.00,,---,0.00,86.00,VWS V14.01,2013-05-07 12:50:00,
2013-05-07 07:55:00,56.5,49.4,30.01,SE,131,0.0,4.0,77,0.00,,---,0.00,74.00,VWS V14.01,2013-05-07 12:55:00,
2013-05-07 08:00:00,56.9,49.4,30.01,SE,131,0.0,4.0,76,0.00,,---,0.00,76.00,VWS V14.01,2013-05-07 13:00:00,
2013-05-07 08:05:00,57.2,49.4,30.01,SE,131,0.0,0.0,75,0.00,,---,0.00,47.00,VWS V14.01,2013-05-07 13:05:00,
2013-05-07 08:10:00,57.5,49.7,30.01,SE,131,0.0,1.0,75,0.00,,---,0.00,33.00,VWS V14.01,2013-05-07 13:10:00,
2013-05-07 08:15:00,57.7,49.8,30.00,SE,131,0.0,1.0,75,0.00,,---,0.00,28.00,VWS V14.01,2013-05-07 13:15:00,
2013-05-07 08:20:00,57.8,50.3,30.00,SE,131,0.0,2.0,76,0.00,,---,0.00,28.00,VWS V14.01,2013-05-07 13:20:00,
2013-05-07 08:25:00,58.0,50.5,30.01,SE,131,0.0,2.0,76,0.00,,---,0.00,47.00,VWS V14.01,2013-05-07 13:25:00,
2013-05-07 08:30:00,58.1,50.9,29.99,SE,131,0.0,2.0,77,0.00,,---,0.00,86.00,VWS V14.01,2013-05-07 13:30:00,
2013-05-07 08:35:00,58.4,50.5,29.99,SE,146,6.0,10.0,75,0.00,,---,0.00,128.00,VWS V14.01,2013-05-07 13:35:00,
2013-05-07 08:40:00,59.0,50.0,29.99,SE,136,5.0,10.0,72,0.00,,---,0.00,132.00,VWS V14.01,2013-05-07 13:40:00,
2013-05-07 08:45:00,59.5,49.7,30.00,SE,136,0.0,10.0,70,0.00,,---,0.00,148.00,VWS V14.01,2013-05-07 13:45:00,
2013-05-07 08:50:00,59.8,49.2,30.01,ESE,120,3.0,10.0,68,0.00,,---,0.00,350.00,VWS V14.01,2013-05-07 13:50:00,
2013-05-07 08:55:00,60.9,51.1,30.01,NNE,24,10.0,10.0,70,0.00,,---,0.00,577.00,VWS V14.01,2013-05-07 13:55:00,
2013-05-07 09:00:00,62.2,50.7,30.01,NNE,24,6.0,13.0,66,0.00,,---,0.00,578.00,VWS V14.01,2013-05-07 14:00:00,
2013-05-07 09:05:00,63.5,49.8,30.01,NE,47,2.0,8.0,61,0.00,,---,0.00,399.00,VWS V14.01,2013-05-07 14:05:00,
2013-05-07 09:10:00,64.4,49.3,30.00,SSE,148,5.0,8.0,58,0.00,,---,0.00,156.00,VWS V14.01,2013-05-07 14:10:00,
2013-05-07 09:15:00,64.7,49.1,30.00,SE,142,0.0,10.0,57,0.00,,---,0.00,179.00,VWS V14.01,2013-05-07 14:15:00,
2013-05-07 09:20:00,64.9,49.3,30.01,SE,142,0.0,10.0,57,0.00,,---,0.00,258.00,VWS V14.01,2013-05-07 14:20:00,
2013-05-07 09:25:00,65.4,49.8,30.02,SE,142,0.0,10.0,57,0.00,,---,0.00,573.00,VWS V14.01,2013-05-07 14:25:00,
2013-05-07 09:30:00,66.0,49.9,30.02,ESE,113,5.0,10.0,56,0.00,,---,0.00,719.00,VWS V14.01,2013-05-07 14:30:00,
2013-05-07 09:35:00,66.3,49.2,30.02,ESE,107,0.0,5.0,54,0.00,,---,0.00,255.00,VWS V14.01,2013-05-07 14:35:00,
2013-05-07 09:40:00,66.7,49.0,30.02,ESE,107,0.0,5.0,53,0.00,,---,0.00,239.00,VWS V14.01,2013-05-07 14:40:00,
2013-05-07 09:45:00,67.0,49.3,30.02,East,99,0.0,5.0,53,0.00,,---,0.00,248.00,VWS V14.01,2013-05-07 14:45:00,
2013-05-07 09:50:00,68.0,49.2,30.03,East,99,0.0,5.0,51,0.00,,---,0.00,612.00,VWS V14.01,2013-05-07 14:50:00,
2013-05-07 09:55:00,68.7,49.3,30.03,East,99,0.0,5.0,50,0.00,,---,0.00,571.00,VWS V14.01,2013-05-07 14:55:00,
2013-05-07 10:00:00,69.4,50.0,30.03,East,99,0.0,5.0,50,0.00,,---,0.00,464.00,VWS V14.01,2013-05-07 15:00:00,
2013-05-07 10:05:00,69.9,49.9,30.03,East,99,0.0,6.0,49,0.00,,---,0.00,635.00,VWS V14.01,2013-05-07 15:05:00,
2013-05-07 10:10:00,70.7,50.1,30.03,East,99,0.0,6.0,48,0.00,,---,0.00,647.00,VWS V14.01,2013-05-07 15:10:00,
2013-05-07 10:15:00,71.2,48.2,30.02,East,94,7.0,13.0,44,0.00,,---,0.00,654.00,VWS V14.01,2013-05-07 15:15:00,
2013-05-07 10:20:00,71.8,47.5,30.02,SE,138,7.0,13.0,42,0.00,,---,0.00,673.00,VWS V14.01,2013-05-07 15:20:00,
2013-05-07 10:25:00,72.3,47.3,30.02,SE,133,2.0,13.0,41,0.00,,---,0.00,691.00,VWS V14.01,2013-05-07 15:25:00,
2013-05-07 10:30:00,73.0,46.6,30.02,SE,138,5.0,13.0,39,0.00,,---,0.00,705.00,VWS V14.01,2013-05-07 15:30:00,
2013-05-07 10:35:00,73.5,47.0,30.02,SSE,159,7.0,9.0,39,0.00,,---,0.00,717.00,VWS V14.01,2013-05-07 15:35:00,
2013-05-07 10:40:00,74.1,45.5,30.02,SE,141,12.0,16.0,36,0.00,,---,0.00,729.00,VWS V14.01,2013-05-07 15:40:00,
2013-05-07 10:45:00,74.1,45.5,30.02,SSE,167,6.0,16.0,36,0.00,,---,0.00,742.00,VWS V14.01,2013-05-07 15:45:00,
2013-05-07 10:50:00,74.4,46.5,30.02,ESE,121,10.0,16.0,37,0.00,,---,0.00,756.00,VWS V14.01,2013-05-07 15:50:00,
2013-05-07 10:55:00,74.5,45.8,30.02,South,173,5.0,16.0,36,0.00,,---,0.00,770.00,VWS V14.01,2013-05-07 15:55:00,
2013-05-07 11:00:00,74.8,46.8,30.02,SSE,163,10.0,16.0,37,0.00,,---,0.00,784.00,VWS V14.01,2013-05-07 16:00:00,
2013-05-07 11:05:00,74.8,46.8,30.02,SE,145,14.0,14.0,37,0.00,,---,0.00,796.00,VWS V14.01,2013-05-07 16:05:00,
2013-05-07 11:10:00,74.8,46.8,30.01,South,175,4.0,15.0,37,0.00,,---,0.00,805.00,VWS V14.01,2013-05-07 16:10:00,
2013-05-07 11:15:00,74.9,46.9,30.01,SE,131,5.0,15.0,37,0.00,,---,0.00,817.00,VWS V14.01,2013-05-07 16:15:00,
2013-05-07 11:20:00,76.0,47.2,30.01,SE,144,7.0,15.0,36,0.00,,---,0.00,831.00,VWS V14.01,2013-05-07 16:20:00,
2013-05-07 11:25:00,76.2,47.3,30.00,SSE,150,4.0,15.0,36,0.00,,---,0.00,844.00,VWS V14.01,2013-05-07 16:25:00,
2013-05-07 11:30:00,76.4,48.2,30.00,East,101,3.0,15.0,37,0.00,,---,0.00,853.00,VWS V14.01,2013-05-07 16:30:00,
2013-05-07 11:35:00,77.2,47.5,30.00,SSE,168,7.0,8.0,35,0.00,,---,0.00,865.00,VWS V14.01,2013-05-07 16:35:00,
2013-05-07 11:40:00,77.1,48.1,30.00,ESE,109,2.0,13.0,36,0.00,,---,0.00,874.00,VWS V14.01,2013-05-07 16:40:00,
2013-05-07 11:45:00,77.5,46.2,29.99,SSE,153,5.0,14.0,33,0.00,,---,0.00,884.00,VWS V14.01,2013-05-07 16:45:00,
2013-05-07 11:50:00,77.6,45.4,29.99,SSE,165,7.0,14.0,32,0.00,,---,0.00,895.00,VWS V14.01,2013-05-07 16:50:00,
2013-05-07 11:55:00,78.2,46.8,29.99,SE,138,6.0,14.0,33,0.00,,---,0.00,904.00,VWS V14.01,2013-05-07 16:55:00,
2013-05-07 12:00:00,78.2,46.0,29.99,SSE,150,9.0,17.0,32,0.00,,---,0.00,911.00,VWS V14.01,2013-05-07 17:00:00,
2013-05-07 12:05:00,78.5,47.0,29.98,SE,144,3.0,14.0,33,0.00,,---,0.00,919.00,VWS V14.01,2013-05-07 17:05:00,
2013-05-07 12:10:00,78.7,46.4,29.98,SSE,166,9.0,14.0,32,0.00,,---,0.00,926.00,VWS V14.01,2013-05-07 17:10:00,
2013-05-07 12:15:00,79.5,46.2,29.98,SE,132,7.0,15.0,31,0.00,,---,0.00,935.00,VWS V14.01,2013-05-07 17:15:00,
2013-05-07 12:20:00,79.3,46.1,29.98,SSE,151,5.0,15.0,31,0.00,,---,0.00,940.00,VWS V14.01,2013-05-07 17:20:00,
2013-05-07 12:25:00,79.3,46.9,29.98,SSE,149,4.0,15.0,32,0.00,,---,0.00,946.00,VWS V14.01,2013-05-07 17:25:00,
2013-05-07 12:30:00,80.0,46.7,29.97,South,177,8.0,17.0,31,0.00,,---,0.00,951.00,VWS V14.01,2013-05-07 17:30:00,
2013-05-07 12:35:00,80.1,46.8,29.97,ESE,113,4.0,12.0,31,0.00,,---,0.00,958.00,VWS V14.01,2013-05-07 17:35:00,
2013-05-07 12:40:00,80.3,46.9,29.97,SE,146,19.0,19.0,31,0.00,,---,0.00,963.00,VWS V14.01,2013-05-07 17:40:00,
2013-05-07 12:45:00,79.6,46.3,29.96,SE,146,9.0,20.0,31,0.00,,---,0.00,967.00,VWS V14.01,2013-05-07 17:45:00,
2013-05-07 12:50:00,80.1,46.8,29.96,SE,129,2.0,20.0,31,0.00,,---,0.00,970.00,VWS V14.01,2013-05-07 17:50:00,
2013-05-07 12:55:00,79.9,46.6,29.95,SSE,155,5.0,20.0,31,0.00,,---,0.00,974.00,VWS V14.01,2013-05-07 17:55:00,
2013-05-07 13:00:00,80.4,47.0,29.95,ESE,115,3.0,20.0,31,0.00,,---,0.00,979.00,VWS V14.01,2013-05-07 18:00:00,
2013-05-07 13:05:00,80.9,47.5,29.95,SSE,157,4.0,14.0,31,0.00,,---,0.00,984.00,VWS V14.01,2013-05-07 18:05:00,
2013-05-07 13:10:00,81.2,46.8,29.95,SE,130,4.0,15.0,30,0.00,,---,0.00,986.00,VWS V14.01,2013-05-07 18:10:00,
2013-05-07 13:15:00,81.0,47.5,29.94,East,101,8.0,15.0,31,0.00,,---,0.00,990.00,VWS V14.01,2013-05-07 18:15:00,
2013-05-07 13:20:00,81.5,47.1,29.94,East,91,0.0,15.0,30,0.00,,---,0.00,991.00,VWS V14.01,2013-05-07 18:20:00,
2013-05-07 13:25:00,82.2,47.7,29.94,East,92,5.0,16.0,30,0.00,,---,0.00,993.00,VWS V14.01,2013-05-07 18:25:00,
2013-05-07 13:30:00,82.5,48.0,29.93,SE,139,8.0,16.0,30,0.00,,---,0.00,993.00,VWS V14.01,2013-05-07 18:30:00,
2013-05-07 13:35:00,82.6,47.2,29.93,SSE,150,13.0,18.0,29,0.00,,---,0.00,993.00,VWS V14.01,2013-05-07 18:35:00,
2013-05-07 13:40:00,82.5,48.0,29.93,ESE,103,7.0,18.0,30,0.00,,---,0.00,990.00,VWS V14.01,2013-05-07 18:40:00,
2013-05-07 13:45:00,82.8,47.3,29.93,SSE,157,10.0,18.0,29,0.00,,---,0.00,993.00,VWS V14.01,2013-05-07 18:45:00,
2013-05-07 13:50:00,82.6,47.2,29.92,SSE,153,5.0,18.0,29,0.00,,---,0.00,993.00,VWS V14.01,2013-05-07 18:50:00,
2013-05-07 13:55:00,83.3,48.7,29.92,SE,139,6.0,18.0,30,0.00,,---,0.00,991.00,VWS V14.01,2013-05-07 18:55:00,
2013-05-07 14:00:00,83.0,47.5,29.92,ESE,118,9.0,19.0,29,0.00,,---,0.00,990.00,VWS V14.01,2013-05-07 19:00:00,
2013-05-07 14:05:00,82.8,47.3,29.91,ESE,109,5.0,11.0,29,0.00,,---,0.00,986.00,VWS V14.01,2013-05-07 19:05:00,
2013-05-07 14:10:00,83.5,47.9,29.91,East,95,6.0,13.0,29,0.00,,---,0.00,984.00,VWS V14.01,2013-05-07 19:10:00,
2013-05-07 14:15:00,83.9,47.3,29.91,SE,132,5.0,13.0,28,0.00,,---,0.00,983.00,VWS V14.01,2013-05-07 19:15:00,
2013-05-07 14:20:00,84.0,46.5,29.91,SE,135,8.0,18.0,27,0.00,,---,0.00,979.00,VWS V14.01,2013-05-07 19:20:00,
2013-05-07 14:25:00,83.6,47.1,29.91,SSE,159,8.0,22.0,28,0.00,,---,0.00,974.00,VWS V14.01,2013-05-07 19:25:00,
2013-05-07 14:30:00,84.1,47.5,29.90,East,97,7.0,22.0,28,0.00,,---,0.00,970.00,VWS V14.01,2013-05-07 19:30:00,
2013-05-07 14:35:00,84.5,47.8,29.90,ESE,109,5.0,13.0,28,0.00,,---,0.00,963.00,VWS V14.01,2013-05-07 19:35:00,
2013-05-07 14:40:00,84.8,47.1,29.90,SSE,153,8.0,19.0,27,0.00,,---,0.00,960.00,VWS V14.01,2013-05-07 19:40:00,
2013-05-07 14:45:00,84.6,47.0,29.90,SSE,157,7.0,19.0,27,0.00,,---,0.00,954.00,VWS V14.01,2013-05-07 19:45:00,
2013-05-07 14:50:00,84.4,45.8,29.89,SE,136,5.0,19.0,26,0.00,,---,0.00,949.00,VWS V14.01,2013-05-07 19:50:00,
2013-05-07 14:55:00,84.5,47.8,29.89,SE,144,4.0,19.0,28,0.00,,---,0.00,944.00,VWS V14.01,2013-05-07 19:55:00,
2013-05-07 15:00:00,84.9,47.2,29.89,SE,125,5.0,19.0,27,0.00,,---,0.00,933.00,VWS V14.01,2013-05-07 20:00:00,
2013-05-07 15:05:00,85.7,46.9,29.89,ESE,117,7.0,13.0,26,0.00,,---,0.00,933.00,VWS V14.01,2013-05-07 20:05:00,
2013-05-07 15:10:00,85.5,46.7,29.88,SSE,149,10.0,17.0,26,0.00,,---,0.00,921.00,VWS V14.01,2013-05-07 20:10:00,
2013-05-07 15:15:00,85.6,46.8,29.88,SSE,163,10.0,17.0,26,0.00,,---,0.00,912.00,VWS V14.01,2013-05-07 20:15:00,
2013-05-07 15:20:00,85.6,45.8,29.87,SSE,150,5.0,17.0,25,0.00,,---,0.00,905.00,VWS V14.01,2013-05-07 20:20:00,
2013-05-07 15:25:00,85.3,45.5,29.87,SSE,153,5.0,17.0,25,0.00,,---,0.00,898.00,VWS V14.01,2013-05-07 20:25:00,
2013-05-07 15:30:00,85.5,45.7,29.87,SSE,157,15.0,22.0,25,0.00,,---,0.00,886.00,VWS V14.01,2013-05-07 20:30:00,
2013-05-07 15:35:00,85.2,45.5,29.87,SE,145,1.0,16.0,25,0.00,,---,0.00,877.00,VWS V14.01,2013-05-07 20:35:00,
2013-05-07 15:40:00,85.6,45.8,29.86,SSE,149,11.0,19.0,25,0.00,,---,0.00,867.00,VWS V14.01,2013-05-07 20:40:00,
2013-05-07 15:45:00,85.7,45.9,29.86,SSE,147,7.0,19.0,25,0.00,,---,0.00,856.00,VWS V14.01,2013-05-07 20:45:00,
2013-05-07 15:50:00,85.6,45.8,29.86,SE,124,10.0,19.0,25,0.00,,---,0.00,844.00,VWS V14.01,2013-05-07 20:50:00,
2013-05-07 15:55:00,85.5,45.7,29.85,SE,141,11.0,19.0,25,0.00,,---,0.00,835.00,VWS V14.01,2013-05-07 20:55:00,
2013-05-07 16:00:00,85.8,46.0,29.85,SE,146,1.0,19.0,25,0.00,,---,0.00,823.00,VWS V14.01,2013-05-07 21:00:00,
2013-05-07 16:05:00,85.8,44.9,29.85,SE,143,18.0,19.0,24,0.00,,---,0.00,810.00,VWS V14.01,2013-05-07 21:05:00,
2013-05-07 16:10:00,85.8,44.9,29.85,SE,140,10.0,19.0,24,0.00,,---,0.00,802.00,VWS V14.01,2013-05-07 21:10:00,
2013-05-07 16:15:00,86.3,45.3,29.84,East,99,7.0,19.0,24,0.00,,---,0.00,789.00,VWS V14.01,2013-05-07 21:15:00,
2013-05-07 16:20:00,86.2,46.3,29.84,SE,138,11.0,19.0,25,0.00,,---,0.00,773.00,VWS V14.01,2013-05-07 21:20:00,
2013-05-07 16:25:00,86.1,45.1,29.84,South,169,11.0,19.0,24,0.00,,---,0.00,761.00,VWS V14.01,2013-05-07 21:25:00,
2013-05-07 16:30:00,85.9,45.0,29.83,SSE,158,2.0,19.0,24,0.00,,---,0.00,747.00,VWS V14.01,2013-05-07 21:30:00,
2013-05-07 16:35:00,86.0,46.1,29.83,SE,142,2.0,30.0,25,0.00,,---,0.00,735.00,VWS V14.01,2013-05-07 21:35:00,
2013-05-07 16:40:00,86.4,45.4,29.83,SE,134,16.0,30.0,24,0.00,,---,0.00,721.00,VWS V14.01,2013-05-07 21:40:00,
2013-05-07 16:45:00,86.0,46.1,29.83,South,188,5.0,30.0,25,0.00,,---,0.00,707.00,VWS V14.01,2013-05-07 21:45:00,
2013-05-07 16:50:00,86.4,46.5,29.83,SE,137,6.0,30.0,25,0.00,,---,0.00,689.00,VWS V14.01,2013-05-07 21:50:00,
2013-05-07 16:55:00,86.6,46.6,29.83,SE,128,2.0,30.0,25,0.00,,---,0.00,670.00,VWS V14.01,2013-05-07 21:55:00,
2013-05-07 17:00:00,86.3,45.3,29.82,SSE,154,2.0,30.0,24,0.00,,---,0.00,654.00,VWS V14.01,2013-05-07 22:00:00,
2013-05-07 17:05:00,86.5,46.5,29.82,ESE,114,5.0,12.0,25,0.00,,---,0.00,642.00,VWS V14.01,2013-05-07 22:05:00,
2013-05-07 17:10:00,86.5,45.5,29.82,SSE,161,6.0,14.0,24,0.00,,---,0.00,626.00,VWS V14.01,2013-05-07 22:10:00,
2013-05-07 17:15:00,86.6,45.5,29.82,SE,142,4.0,16.0,24,0.00,,---,0.00,610.00,VWS V14.01,2013-05-07 22:15:00,
2013-05-07 17:20:00,86.4,46.5,29.82,SE,143,9.0,19.0,25,0.00,,---,0.00,596.00,VWS V14.01,2013-05-07 22:20:00,
2013-05-07 17:25:00,86.2,46.3,29.82,SE,134,12.0,19.0,25,0.00,,---,0.00,578.00,VWS V14.01,2013-05-07 22:25:00,
2013-05-07 17:30:00,86.4,46.5,29.82,ESE,117,7.0,19.0,25,0.00,,---,0.00,561.00,VWS V14.01,2013-05-07 22:30:00,
2013-05-07 17:35:00,86.5,46.5,29.82,SSE,151,7.0,16.0,25,0.00,,---,0.00,541.00,VWS V14.01,2013-05-07 22:35:00,
2013-05-07 17:40:00,86.1,46.2,29.82,SE,137,7.0,16.0,25,0.00,,---,0.00,529.00,VWS V14.01,2013-05-07 22:40:00,
2013-05-07 17:45:00,85.8,46.0,29.82,SSE,167,7.0,19.0,25,0.00,,---,0.00,512.00,VWS V14.01,2013-05-07 22:45:00,
2013-05-07 17:50:00,85.9,46.0,29.81,SSE,166,6.0,19.0,25,0.00,,---,0.00,492.00,VWS V14.01,2013-05-07 22:50:00,
2013-05-07 17:54:00,86.1,46.2,29.81,SE,140,8.0,19.0,25,0.00,,---,0.00,476.00,VWS V14.01,2013-05-07 22:54:00,
2013-05-07 17:59:00,86.3,45.3,29.81,SSE,148,13.0,19.0,24,0.00,,---,0.00,459.00,VWS V14.01,2013-05-07 22:59:00,
2013-05-07 18:04:00,86.5,46.5,29.81,SSE,161,3.0,12.0,25,0.00,,---,0.00,439.00,VWS V14.01,2013-05-07 23:04:00,
2013-05-07 18:09:00,86.3,46.4,29.81,SSE,167,9.0,14.0,25,0.00,,---,0.00,425.00,VWS V14.01,2013-05-07 23:09:00,
2013-05-07 18:14:00,86.0,46.1,29.81,SSE,158,5.0,14.0,25,0.00,,---,0.00,408.00,VWS V14.01,2013-05-07 23:14:00,
2013-05-07 18:19:00,86.0,46.1,29.81,SE,138,3.0,14.0,25,0.00,,---,0.00,388.00,VWS V14.01,2013-05-07 23:19:00,
2013-05-07 18:24:00,86.0,46.1,29.81,SE,143,5.0,16.0,25,0.00,,---,0.00,369.00,VWS V14.01,2013-05-07 23:24:00,
2013-05-07 18:29:00,85.8,46.0,29.80,SSE,150,3.0,16.0,25,0.00,,---,0.00,350.00,VWS V14.01,2013-05-07 23:29:00,
2013-05-07 18:34:00,85.6,45.8,29.80,SSE,153,9.0,18.0,25,0.00,,---,0.00,330.00,VWS V14.01,2013-05-07 23:34:00,
2013-05-07 18:39:00,85.4,45.6,29.80,SSE,148,9.0,19.0,25,0.00,,---,0.00,315.00,VWS V14.01,2013-05-07 23:39:00,
2013-05-07 18:44:00,85.2,46.5,29.80,SE,146,9.0,19.0,26,0.00,,---,0.00,299.00,VWS V14.01,2013-05-07 23:44:00,
2013-05-07 18:49:00,85.2,46.5,29.80,SE,138,11.0,19.0,26,0.00,,---,0.00,279.00,VWS V14.01,2013-05-07 23:49:00,
2013-05-07 18:54:00,85.0,46.3,29.80,SE,126,11.0,19.0,26,0.00,,---,0.00,257.00,VWS V14.01,2013-05-07 23:54:00,
2013-05-07 18:59:00,84.9,46.2,29.80,SE,141,7.0,19.0,26,0.00,,---,0.00,169.00,VWS V14.01,2013-05-07 23:59:00,
2013-05-07 19:04:00,84.7,46.1,29.80,SSE,150,3.0,14.0,26,0.00,,---,0.00,195.00,VWS V14.01,2013-05-08 00:04:00,
2013-05-07 19:09:00,84.5,45.9,29.80,SE,144,4.0,15.0,26,0.00,,---,0.00,179.00,VWS V14.01,2013-05-08 00:09:00,
2013-05-07 19:14:00,84.4,46.8,29.79,SE,144,5.0,17.0,27,0.00,,---,0.00,188.00,VWS V14.01,2013-05-08 00:14:00,
2013-05-07 19:19:00,84.3,46.7,29.79,SE,143,0.0,17.0,27,0.00,,---,0.00,169.00,VWS V14.01,2013-05-08 00:19:00,
2013-05-07 19:24:00,84.2,46.6,29.79,SSE,159,5.0,17.0,27,0.00,,---,0.00,149.00,VWS V14.01,2013-05-08 00:24:00,
2013-05-07 19:29:00,83.9,46.4,29.79,SE,140,1.0,17.0,27,0.00,,---,0.00,93.00,VWS V14.01,2013-05-08 00:29:00,
2013-05-07 19:34:00,83.6,47.1,29.79,SE,138,9.0,9.0,28,0.00,,---,0.00,60.00,VWS V14.01,2013-05-08 00:34:00,
2013-05-07 19:39:00,83.1,46.7,29.79,SSE,156,8.0,9.0,28,0.00,,---,0.00,35.00,VWS V14.01,2013-05-08 00:39:00,
2013-05-07 19:44:00,82.6,46.2,29.79,SE,136,4.0,10.0,28,0.00,,---,0.00,37.00,VWS V14.01,2013-05-08 00:44:00,
2013-05-07 19:49:00,82.1,46.7,29.79,SE,135,0.0,10.0,29,0.00,,---,0.00,39.00,VWS V14.01,2013-05-08 00:49:00,
2013-05-07 19:54:00,81.7,46.4,29.79,SE,127,5.0,10.0,29,0.00,,---,0.00,25.00,VWS V14.01,2013-05-08 00:54:00,
2013-05-07 19:59:00,81.3,46.9,29.79,SE,130,0.0,10.0,30,0.00,,---,0.00,21.00,VWS V14.01,2013-05-08 00:59:00,
2013-05-07 20:04:00,81.0,46.7,29.79,SE,138,3.0,9.0,30,0.00,,---,0.00,25.00,VWS V14.01,2013-05-08 01:04:00,
2013-05-07 20:09:00,80.5,47.1,29.79,SE,136,0.0,9.0,31,0.00,,---,0.00,18.00,VWS V14.01,2013-05-08 01:09:00,
2013-05-07 20:14:00,80.1,46.8,29.80,SE,134,4.0,9.0,31,0.00,,---,0.00,14.00,VWS V14.01,2013-05-08 01:14:00,
2013-05-07 20:19:00,79.7,46.4,29.80,SE,134,0.0,9.0,31,0.00,,---,0.00,11.00,VWS V14.01,2013-05-08 01:19:00,
2013-05-07 20:24:00,79.3,46.9,29.80,SE,132,0.0,9.0,32,0.00,,---,0.00,7.00,VWS V14.01,2013-05-08 01:24:00,
2013-05-07 20:29:00,78.9,47.4,29.80,SE,132,1.0,9.0,33,0.00,,---,0.00,0.00,VWS V14.01,2013-05-08 01:29:00,
2013-05-07 20:34:00,78.4,47.0,29.80,SE,132,1.0,2.0,33,0.00,,---,0.00,0.00,VWS V14.01,2013-05-08 01:34:00,
2013-05-07 20:39:00,77.9,47.3,29.80,SE,133,0.0,5.0,34,0.00,,---,0.00,0.00,VWS V14.01,2013-05-08 01:39:00,
2013-05-07 20:44:00,77.4,46.9,29.80,SE,134,0.0,5.0,34,0.00,,---,0.00,0.00,VWS V14.01,2013-05-08 01:44:00,
2013-05-07 20:49:00,77.1,47.4,29.80,SE,134,0.0,5.0,35,0.00,,---,0.00,0.00,VWS V14.01,2013-05-08 01:49:00,
2013-05-07 20:54:00,76.7,47.0,29.80,SE,134,3.0,5.0,35,0.00,,---,0.00,0.00,VWS V14.01,2013-05-08 01:54:00,
2013-05-07 20:59:00,76.4,47.5,29.80,SE,135,3.0,5.0,36,0.00,,---,0.00,0.00,VWS V14.01,2013-05-08 01:59:00,
2013-05-07 21:04:00,76.0,47.9,29.80,SE,135,0.0,2.0,37,0.00,,---,0.00,0.00,VWS V14.01,2013-05-08 02:04:00,
2013-05-07 21:09:00,75.7,47.6,29.80,SE,134,0.0,4.0,37,0.00,,---,0.00,0.00,VWS V14.01,2013-05-08 02:09:00,
2013-05-07 21:14:00,75.6,47.5,29.81,SE,134,0.0,4.0,37,0.00,,---,0.00,0.00,VWS V14.01,2013-05-08 02:14:00,
2013-05-07 21:19:00,75.4,48.0,29.81,SE,134,0.0,4.0,38,0.00,,---,0.00,0.00,VWS V14.01,2013-05-08 02:19:00,
2013-05-07 21:24:00,75.0,48.4,29.81,SE,134,0.0,4.0,39,0.00,,---,0.00,0.00,VWS V14.01,2013-05-08 02:24:00,
2013-05-07 21:29:00,74.6,48.0,29.81,SE,134,0.0,4.0,39,0.00,,---,0.00,0.00,VWS V14.01,2013-05-08 02:29:00,
2013-05-07 21:34:00,74.0,48.2,29.81,SE,134,0.0,3.0,40,0.00,,---,0.00,0.00,VWS V14.01,2013-05-08 02:34:00,
2013-05-07 21:39:00,73.5,47.7,29.81,SE,134,0.0,3.0,40,0.00,,---,0.00,0.00,VWS V14.01,2013-05-08 02:39:00,
2013-05-07 21:44:00,73.0,47.9,29.82,SE,134,0.0,4.0,41,0.00,,---,0.00,0.00,VWS V14.01,2013-05-08 02:44:00,
2013-05-07 21:49:00,72.6,48.2,29.81,SE,134,3.0,6.0,42,0.00,,---,0.00,0.00,VWS V14.01,2013-05-08 02:49:00,
2013-05-07 21:54:00,72.4,48.0,29.82,SE,134,0.0,6.0,42,0.00,,---,0.00,0.00,VWS V14.01,2013-05-08 02:54:00,
2013-05-07 21:59:00,72.3,48.0,29.81,SE,139,0.0,6.0,42,0.00,,---,0.00,0.00,VWS V14.01,2013-05-08 02:59:00,
2013-05-07 22:04:00,72.4,48.0,29.81,SE,128,1.0,6.0,42,0.00,,---,0.00,0.00,VWS V14.01,2013-05-08 03:04:00,
2013-05-07 22:09:00,72.6,48.2,29.81,SE,127,2.0,8.0,42,0.00,,---,0.00,0.00,VWS V14.01,2013-05-08 03:09:00,
2013-05-07 22:14:00,72.8,47.8,29.81,SE,132,3.0,8.0,41,0.00,,---,0.00,0.00,VWS V14.01,2013-05-08 03:14:00,
2013-05-07 22:19:00,73.0,47.9,29.81,ESE,119,4.0,9.0,41,0.00,,---,0.00,0.00,VWS V14.01,2013-05-08 03:19:00,
2013-05-07 22:24:00,73.1,48.0,29.82,SE,136,4.0,9.0,41,0.00,,---,0.00,0.00,VWS V14.01,2013-05-08 03:24:00,
2013-05-07 22:29:00,73.1,48.0,29.82,ESE,117,7.0,11.0,41,0.00,,---,0.00,0.00,VWS V14.01,2013-05-08 03:29:00,
2013-05-07 22:34:00,73.2,47.5,29.82,SE,132,1.0,6.0,40,0.00,,---,0.00,0.00,VWS V14.01,2013-05-08 03:34:00,
2013-05-07 22:39:00,73.2,48.1,29.82,SE,132,1.0,11.0,41,0.00,,---,0.00,0.00,VWS V14.01,2013-05-08 03:39:00,
2013-05-07 22:44:00,73.1,48.0,29.82,ESE,122,3.0,11.0,41,0.00,,---,0.00,0.00,VWS V14.01,2013-05-08 03:44:00,
2013-05-07 22:49:00,73.0,47.9,29.82,ESE,115,2.0,11.0,41,0.00,,---,0.00,0.00,VWS V14.01,2013-05-08 03:49:00,
2013-05-07 22:54:00,72.7,48.3,29.82,SE,130,6.0,11.0,42,0.00,,---,0.00,0.00,VWS V14.01,2013-05-08 03:54:00,
2013-05-07 22:59:00,72.3,48.0,29.82,SE,130,5.0,11.0,42,0.00,,---,0.00,0.00,VWS V14.01,2013-05-08 03:59:00,
2013-05-07 23:01:00,72.2,47.9,29.82,SSE,154,3.0,11.0,42,0.00,,---,0.00,0.00,VWS V14.01,2013-05-08 04:01:00,
2013-05-07 23:06:00,72.1,47.8,29.82,SE,130,2.0,11.0,42,0.00,,---,0.00,0.00,VWS V14.01,2013-05-08 04:06:00,
2013-05-07 23:11:00,72.0,48.3,29.82,ESE,120,5.0,11.0,43,0.00,,---,0.00,0.00,VWS V14.01,2013-05-08 04:11:00,
2013-05-07 23:16:00,71.9,48.2,29.82,East,96,8.0,11.0,43,0.00,,---,0.00,0.00,VWS V14.01,2013-05-08 04:16:00,
2013-05-07 23:21:00,71.8,48.1,29.82,ESE,123,3.0,11.0,43,0.00,,---,0.00,0.00,VWS V14.01,2013-05-08 04:21:00,
2013-05-07 23:26:00,71.6,47.9,29.82,SE,134,4.0,11.0,43,0.00,,---,0.00,0.00,VWS V14.01,2013-05-08 04:26:00,
2013-05-07 23:31:00,71.4,47.8,29.82,ESE,117,4.0,4.0,43,0.00,,---,0.00,0.00,VWS V14.01,2013-05-08 04:31:00,
2013-05-07 23:36:00,71.1,48.1,29.82,ESE,118,3.0,7.0,44,0.00,,---,0.00,0.00,VWS V14.01,2013-05-08 04:36:00,
2013-05-07 23:41:00,70.8,47.8,29.82,ESE,117,2.0,7.0,44,0.00,,---,0.00,0.00,VWS V14.01,2013-05-08 04:41:00,
2013-05-07 23:46:00,70.6,47.7,29.82,SE,134,3.0,7.0,44,0.00,,---,0.00,0.00,VWS V14.01,2013-05-08 04:46:00,
2013-05-07 23:51:00,70.7,47.7,29.82,ESE,115,7.0,10.0,44,0.00,,---,0.00,0.00,VWS V14.01,2013-05-08 04:51:00,
2013-05-07 23:56:00,70.8,47.8,29.82,ESE,113,7.0,10.0,44,0.00,,---,0.00,0.00,VWS V14.01,2013-05-08 04:56:00,